Content
SEND FEEDBACK

Daily
Averages
Monthly
Summary
United States of America

MALDEN, MISSOURI


Home > North America > United States > Missouri
Elevation: 295 feet     Latitude: 36 36N     Longitude: 089 59W

WEATHER
 
SELECT A DAY
Number of Records: 207,958;   Date Range: 1/1/95 - 9/20/14
 
SHARE

PRINT THIS DATA

[ ← Previous Day ]
WEATHER ALMANAC - OCTOBER 8, 2013
[ Next Day → ]
[ °C ]   °F
We're sorry. There is no daily almanac available for Malden, Missouri on October 8, 2013.
WEATHER BY HOUR - OCTOBER 8, 2013
[ °C ]   °F
Local TimeTemperatureDewpointHumidityBarometerVisibilityWind DirectionWind SpeedGust SpeedPrecipitationEventsConditions
1:53 AM50.0 °F46.9 °F89 %30.15 in10.0 miCalmClear
2:53 AM48.9 °F46.0 °F90 %30.14 in10.0 miCalmClear
3:53 AM48.9 °F46.0 °F90 %30.14 in10.0 miNW (320°)3.5 mphClear
4:53 AM48.0 °F45.0 °F89 %30.16 in10.0 miCalmClear
5:53 AM48.0 °F45.0 °F89 %30.17 in10.0 miNW (320°)3.5 mphClear
6:53 AM46.9 °F44.1 °F90 %30.18 in9.0 miCalmClear
7:53 AM52.0 °F48.0 °F86 %30.20 in10.0 miCalmClear
8:53 AM57.9 °F51.1 °F78 %30.21 in10.0 miNE (40°)4.6 mphClear
9:53 AM63.0 °F50.0 °F63 %30.21 in10.0 miENE (70°)5.8 mphClear
10:53 AM66.0 °F48.9 °F54 %30.20 in10.0 miESE (110°)6.9 mphClear
11:53 AM69.1 °F48.9 °F49 %30.19 in10.0 miEast (100°)8.1 mphClear
12:53 PM72.0 °F48.0 °F43 %30.17 in10.0 miENE (60°)9.2 mphClear
1:53 PM73.0 °F46.9 °F39 %30.14 in10.0 miNE (50°)10.4 mphClear
2:53 PM73.0 °F46.0 °F38 %30.12 in10.0 miENE (70°)6.9 mph20.7 mphClear
3:53 PM73.0 °F46.0 °F38 %30.11 in10.0 miEast (80°)8.1 mphClear
4:53 PM73.0 °F45.0 °F37 %30.11 in10.0 miENE (60°)6.9 mphClear
5:53 PM71.1 °F46.0 °F41 %30.10 in10.0 miENE (60°)3.5 mphClear
6:53 PM63.0 °F48.0 °F58 %30.11 in10.0 miEast (80°)3.5 mphClear
7:53 PM57.0 °F52.0 °F83 %30.11 in10.0 miCalmClear
8:53 PM55.9 °F50.0 °F80 %30.12 in10.0 miNorth (360°)3.5 mphClear
9:53 PM54.0 °F48.9 °F83 %30.13 in10.0 miNNE (30°)3.5 mphClear
10:53 PM52.0 °F48.0 °F86 %30.13 in10.0 miNE (50°)3.5 mphClear
11:53 PM53.1 °F48.0 °F83 %30.12 in10.0 miNE (50°)3.5 mphClear
Hourly data recorded from KPOF, located miles away from Malden, Missouri







STORIES FROM OUR PARTNERS